| time (UTC) | temp F | wind direction | speed MPH | gust MPH | rain 1hr in | rain 24hr in | rain mn in | humidity % | barometer mb |
| 20260507133145 | 64 | 250 | 1.0 | 6.0 | 0.01 | 0.02 | 0.02 | 82 | 1010.3 |
| 20260507131543 | 65 | 202 | 3.0 | 10.0 | 0.00 | 0.01 | 0.01 | 79 | 1010.2 |
| 20260507130043 | 66 | 170 | 2.0 | 8.0 | 0.00 | 0.01 | 0.01 | 77 | 1010.3 |
| 20260507124547 | 66 | 138 | 0.0 | 3.0 | 0.00 | 0.01 | 0.01 | 77 | 1010.4 |
| 20260507123043 | 66 | 138 | 0.0 | 3.0 | 0.00 | 0.01 | 0.01 | 77 | 1010.6 |
| 20260507121542 | 66 | 117 | 2.0 | 9.0 | 0.00 | 0.01 | 0.01 | 75 | 1010.8 |
| 20260507120040 | 66 | 128 | 4.0 | 12.0 | 0.00 | 0.01 | 0.01 | 73 | 1010.8 |
| 20260507114556 | 67 | 132 | 5.0 | 10.0 | 0.00 | 0.01 | 0.01 | 72 | 1010.8 |
| 20260507113101 | 66 | 98 | 3.0 | 10.0 | 0.00 | 0.01 | 0.01 | 72 | 1010.8 |
| 20260507111541 | 66 | 115 | 8.0 | 13.0 | 0.00 | 0.01 | 0.01 | 72 | 1011.0 |
| 20260507110033 | 66 | 111 | 7.0 | 12.0 | 0.00 | 0.01 | 0.01 | 73 | 1011.1 |
| 20260507104539 | 65 | 126 | 6.0 | 12.0 | 0.00 | 0.01 | 0.01 | 74 | 1011.4 |
| 20260507103131 | 66 | 109 | 6.0 | 11.0 | 0.00 | 0.01 | 0.01 | 73 | 1011.3 |
| 20260507101530 | 66 | 132 | 7.0 | 16.0 | 0.00 | 0.01 | 0.01 | 71 | 1011.2 |
| 20260507100029 | 66 | 107 | 7.0 | 14.0 | 0.00 | 0.01 | 0.01 | 71 | 1011.0 |
| 20260507094528 | 67 | 111 | 7.0 | 13.0 | 0.01 | 0.01 | 0.01 | 72 | 1011.1 |
| 20260507093028 | 66 | 111 | 5.0 | 14.0 | 0.01 | 0.01 | 0.01 | 74 | 1011.2 |
| 20260507091523 | 65 | 132 | 4.0 | 9.0 | 0.01 | 0.01 | 0.01 | 76 | 1011.4 |
| 20260507090019 | 64 | 105 | 7.0 | 13.0 | 0.01 | 0.01 | 0.01 | 76 | 1011.3 |
| 20260507084515 | 64 | 111 | 1.0 | 4.0 | 0.00 | 0.00 | 0.00 | 79 | 1011.3 |
| 20260507083015 | 64 | 41 | 0.0 | 3.0 | 0.00 | 0.00 | 0.00 | 79 | 1011.4 |
| 20260507081513 | 63 | 40 | 0.0 | 2.0 | 0.00 | 0.00 | 0.00 | 79 | 1011.4 |
| 20260507080013 | 63 | 40 | 0.0 | 3.0 | 0.00 | 0.00 | 0.00 | 79 | 1011.5 |
| 20260507074510 | 63 | 40 | 0.0 | 3.0 | 0.00 | 0.00 | 0.00 | 78 | 1011.4 |
| 20260507073008 | 63 | 40 | 1.0 | 4.0 | 0.00 | 0.00 | 0.00 | 77 | 1011.4 |
| 20260507071506 | 63 | 36 | 2.0 | 5.0 | 0.00 | 0.00 | 0.00 | 77 | 1011.2 |
| 20260507070012 | 62 | 28 | 0.0 | 5.0 | 0.00 | 0.00 | 0.00 | 78 | 1011.0 |
| 20260507064503 | 62 | 47 | 1.0 | 4.0 | 0.00 | 0.00 | 0.00 | 78 | 1011.1 |
| 20260507063002 | 61 | 84 | 0.0 | 4.0 | 0.00 | 0.00 | 0.00 | 79 | 1010.9 |
| 20260507061600 | 60 | 84 | 0.0 | 2.0 | 0.00 | 0.00 | 0.00 | 80 | 1010.9 |
| 20260507054557 | 59 | 86 | 0.0 | 2.0 | 0.00 | 0.00 | 0.00 | 81 | 1010.6 |
| 20260507053051 | 59 | 101 | 0.0 | 0.0 | 0.00 | 0.00 | 0.00 | 82 | 1010.8 |
| 20260507051548 | 58 | 101 | 0.0 | 1.0 | 0.00 | 0.00 | 0.00 | 82 | 1010.8 |
| 20260507050046 | 58 | 98 | 0.0 | 1.0 | 0.00 | 0.00 | 0.00 | 82 | 1010.5 |
| 20260507044555 | 59 | 98 | 0.0 | 0.0 | 0.00 | 0.00 | 0.00 | 81 | 1010.5 |
| 20260507043059 | 59 | 98 | 0.0 | 1.0 | 0.00 | 0.00 | 0.00 | 82 | 1010.5 |
| 20260507041542 | 59 | 98 | 0.0 | 3.0 | 0.00 | 0.00 | 0.00 | 83 | 1010.5 |
| 20260507040042 | 59 | 98 | 0.0 | 0.0 | 0.00 | 0.00 | 0.00 | 84 | 1010.5 |
| 20260507034542 | 59 | 98 | 0.0 | 0.0 | 0.00 | 0.00 | 0.00 | 84 | 1010.4 |
| 20260507033040 | 59 | 98 | 0.0 | 0.0 | 0.00 | 0.00 | 0.00 | 84 | 1010.4 |
| 20260507031545 | 59 | 98 | 0.0 | 0.0 | 0.00 | 0.00 | 0.00 | 84 | 1010.4 |
| 20260507030038 | 60 | 98 | 0.0 | 0.0 | 0.00 | 0.00 | 0.00 | 84 | 1010.4 |
| 20260507024536 | 60 | 98 | 0.0 | 0.0 | 0.00 | 0.00 | 0.00 | 83 | 1010.4 |
| 20260507023035 | 60 | 98 | 0.0 | 0.0 | 0.00 | 0.00 | 0.00 | 84 | 1010.4 |
| 20260507021537 | 60 | 98 | 0.0 | 0.0 | 0.00 | 0.00 | 0.00 | 83 | 1010.5 |
| 20260507020046 | 60 | 98 | 0.0 | 1.0 | 0.00 | 0.00 | 0.00 | 83 | 1010.5 |
| 20260507014536 | 61 | 98 | 0.0 | 1.0 | 0.00 | 0.00 | 0.00 | 83 | 1010.7 |
| 20260507013029 | 61 | 98 | 0.0 | 1.0 | 0.00 | 0.00 | 0.00 | 82 | 1010.8 |
| 20260507011540 | 61 | 98 | 0.0 | 2.0 | 0.00 | 0.00 | 0.00 | 82 | 1010.8 |
| 20260507010034 | 61 | 98 | 0.0 | 2.0 | 0.00 | 0.00 | 0.00 | 82 | 1010.8 |
| 20260507004525 | 61 | 98 | 0.0 | 0.0 | 0.00 | 0.00 | 0.00 | 82 | 1010.8 |
| 20260507003024 | 62 | 98 | 0.0 | 3.0 | 0.00 | 0.00 | 0.00 | 82 | 1010.8 |
| 20260507001548 | 62 | 98 | 0.0 | 2.0 | 0.00 | 0.00 | 0.00 | 82 | 1011.0 |
| 20260507000024 | 62 | 98 | 0.0 | 3.0 | 0.00 | 0.00 | 0.00 | 82 | 1011.1 |
| 20260506234519 | 62 | 98 | 0.0 | 3.0 | 0.00 | 0.00 | 0.00 | 82 | 1011.2 |
| 20260506233019 | 62 | 99 | 0.0 | 2.0 | 0.00 | 0.00 | 0.00 | 82 | 1011.4 |
| 20260506231518 | 62 | 99 | 0.0 | 2.0 | 0.00 | 0.00 | 0.00 | 82 | 1011.3 |
| 20260506230016 | 62 | 99 | 0.0 | 2.0 | 0.00 | 0.00 | 0.00 | 82 | 1011.4 |
| 20260506224516 | 62 | 99 | 0.0 | 2.0 | 0.00 | 0.00 | 0.00 | 82 | 1011.4 |
| 20260506223014 | 62 | 99 | 0.0 | 3.0 | 0.00 | 0.00 | 0.00 | 83 | 1011.4 |
| 20260506221515 | 62 | 99 | 0.0 | 2.0 | 0.00 | 0.00 | 0.00 | 83 | 1011.4 |
| 20260506220011 | 62 | 96 | 1.0 | 4.0 | 0.00 | 0.00 | 0.00 | 83 | 1011.4 |
| 20260506214510 | 62 | 96 | 1.0 | 4.0 | 0.00 | 0.00 | 0.00 | 83 | 1011.7 |
| 20260506213010 | 63 | 116 | 2.0 | 7.0 | 0.00 | 0.00 | 0.00 | 83 | 1011.8 |
| 20260506211509 | 63 | 117 | 1.0 | 7.0 | 0.00 | 0.00 | 0.00 | 83 | 1011.7 |
| 20260506210009 | 63 | 108 | 3.0 | 8.0 | 0.00 | 0.00 | 0.00 | 82 | 1011.6 |
| 20260506204506 | 63 | 111 | 4.0 | 8.0 | 0.00 | 0.00 | 0.00 | 82 | 1011.6 |
| 20260506203009 | 63 | 136 | 4.0 | 9.0 | 0.00 | 0.00 | 0.00 | 82 | 1011.5 |
| 20260506201504 | 63 | 98 | 3.0 | 7.0 | 0.00 | 0.00 | 0.00 | 81 | 1011.4 |
| 20260506200001 | 63 | 130 | 4.0 | 8.0 | 0.00 | 0.00 | 0.00 | 80 | 1010.9 |
| 20260506194503 | 64 | 109 | 3.0 | 9.0 | 0.00 | 0.00 | 0.00 | 78 | 1010.8 |
| 20260506193107 | 64 | 101 | 4.0 | 9.0 | 0.00 | 0.00 | 0.00 | 77 | 1010.7 |
| 20260506191600 | 65 | 108 | 5.0 | 11.0 | 0.00 | 0.00 | 0.00 | 76 | 1010.5 |
| 20260506184558 | 65 | 120 | 5.0 | 13.0 | 0.00 | 0.00 | 0.00 | 74 | 1010.3 |
| 20260506183106 | 66 | 84 | 5.0 | 10.0 | 0.00 | 0.00 | 0.00 | 73 | 1010.2 |
| 20260506181603 | 66 | 109 | 8.0 | 13.0 | 0.00 | 0.00 | 0.00 | 72 | 1010.0 |
| 20260506180056 | 66 | 119 | 5.0 | 15.0 | 0.00 | 0.00 | 0.00 | 72 | 1009.9 |
| 20260506174557 | 66 | 92 | 8.0 | 14.0 | 0.00 | 0.00 | 0.00 | 71 | 1009.9 |
| 20260506173104 | 67 | 105 | 9.0 | 16.0 | 0.00 | 0.00 | 0.00 | 69 | 1009.8 |
| 20260506171555 | 67 | 132 | 9.0 | 16.0 | 0.00 | 0.00 | 0.00 | 68 | 1009.7 |
| 20260506170104 | 67 | 124 | 8.0 | 14.0 | 0.00 | 0.00 | 0.00 | 68 | 1009.6 |
| 20260506164606 | 67 | 119 | 8.0 | 14.0 | 0.00 | 0.00 | 0.00 | 66 | 1009.7 |
| 20260506163059 | 68 | 93 | 8.0 | 15.0 | 0.00 | 0.00 | 0.00 | 68 | 1009.7 |
| 20260506161553 | 68 | 119 | 7.0 | 14.0 | 0.00 | 0.00 | 0.00 | 68 | 1009.6 |
| 20260506160056 | 68 | 104 | 5.0 | 14.0 | 0.00 | 0.00 | 0.00 | 69 | 1009.4 |
| 20260506154553 | 68 | 101 | 8.0 | 17.0 | 0.00 | 0.00 | 0.00 | 69 | 1009.4 |
| 20260506153048 | 69 | 85 | 10.0 | 19.0 | 0.00 | 0.00 | 0.00 | 68 | 1009.4 |
| 20260506151547 | 70 | 96 | 7.0 | 16.0 | 0.00 | 0.00 | 0.00 | 67 | 1009.4 |
| 20260506150059 | 69 | 119 | 9.0 | 18.0 | 0.00 | 0.00 | 0.00 | 67 | 1009.4 |
| 20260506144545 | 70 | 130 | 11.0 | 17.0 | 0.00 | 0.00 | 0.00 | 67 | 1009.6 |
| 20260506143045 | 69 | 125 | 9.0 | 18.0 | 0.00 | 0.00 | 0.00 | 68 | 1009.4 |
| 20260506141545 | 70 | 106 | 10.0 | 17.0 | 0.00 | 0.00 | 0.00 | 66 | 1009.6 |
| 20260506140042 | 70 | 125 | 11.0 | 19.0 | 0.00 | 0.00 | 0.00 | 66 | 1009.6 |
| 20260506134540 | 70 | 113 | 11.0 | 19.0 | 0.00 | 0.00 | 0.00 | 65 | 1009.7 |